Location: Celina Division
(33.3022°N, 96.7580°W)
Time: 12:41:39
(UTC+00:00)

Okean 1 - Pass Details

Date: 08 December 2021
Orbit: 538 x 552 km, 82.5° (Epoch: 22 January)

Event Time Altitude Azimuth Distance (km) Brightness Sun altitude
Rises 12:38:54 0° 357° (N) 2,696 6.6 -8.4°
Reaches altitude 10° 12:41:05 10° 1° (N) 1,800 5.7 -8.0°
Maximum altitude 12:44:59 61° 82° (E) 615 3.9 -7.2°
Drops below altitude 10° 12:48:53 10° 163° (SSE) 1,788 6.5 -6.5°
Sets 12:51:02 0° 167° (SSE) 2,676 7.4 -6.0°
